TimeCDT,TemperatureF,Dew PointF,Humidity,Sea Level PressureIn,VisibilityMPH,Wind Direction,Wind SpeedMPH,Gust SpeedMPH,PrecipitationIn,Events,Conditions,WindDirDegrees,DateUTC
12:52 AM,66.9,63.0,87,30.07,6.0,Calm,Calm,-,N/A,,Clear,0,2013-08-21 05:52:00
1:52 AM,62.1,59.0,90,30.07,7.0,Calm,Calm,-,N/A,,Clear,0,2013-08-21 06:52:00
2:52 AM,62.1,59.0,90,30.06,5.0,Calm,Calm,-,N/A,,Clear,0,2013-08-21 07:52:00
3:52 AM,60.1,57.9,93,30.06,4.0,Calm,Calm,-,N/A,,Clear,0,2013-08-21 08:52:00
4:06 AM,60.8,57.2,88,30.07,2.5,Calm,Calm,-,N/A,,Clear,0,2013-08-21 09:06:00
4:17 AM,59.0,57.2,94,30.07,3.0,Calm,Calm,-,N/A,,Clear,0,2013-08-21 09:17:00
4:38 AM,60.8,57.2,88,30.08,2.0,Calm,Calm,-,N/A,,Scattered Clouds,0,2013-08-21 09:38:00
4:45 AM,60.8,57.2,88,30.08,1.2,Calm,Calm,-,N/A,,Scattered Clouds,0,2013-08-21 09:45:00
4:50 AM,60.8,57.2,88,30.08,3.0,Calm,Calm,-,N/A,,Partly Cloudy,0,2013-08-21 09:50:00
4:52 AM,60.1,57.9,93,30.07,4.0,Calm,Calm,-,N/A,,Partly Cloudy,0,2013-08-21 09:52:00
5:52 AM,62.1,60.1,93,30.08,4.0,Calm,Calm,-,N/A,,Scattered Clouds,0,2013-08-21 10:52:00
6:52 AM,66.0,63.0,90,30.09,4.0,Calm,Calm,-,N/A,,Overcast,0,2013-08-21 11:52:00
7:52 AM,70.0,64.9,84,30.09,6.0,South,4.6,-,N/A,,Haze,180,2013-08-21 12:52:00
8:52 AM,75.0,66.0,73,30.09,8.0,SSW,9.2,-,N/A,,Clear,210,2013-08-21 13:52:00
9:52 AM,80.1,66.9,64,30.09,9.0,SSW,8.1,-,N/A,,Clear,210,2013-08-21 14:52:00
10:52 AM,82.9,66.9,58,30.09,10.0,SW,11.5,-,N/A,,Clear,220,2013-08-21 15:52:00
11:52 AM,86.0,66.0,51,30.08,10.0,SW,10.4,-,N/A,,Clear,220,2013-08-21 16:52:00
12:52 PM,88.0,66.0,48,30.07,10.0,SW,13.8,18.4,N/A,,Clear,220,2013-08-21 17:52:00
1:52 PM,89.1,66.0,46,30.06,10.0,SSW,11.5,-,N/A,,Partly Cloudy,210,2013-08-21 18:52:00
2:52 PM,90.0,64.9,43,30.04,10.0,SW,10.4,19.6,N/A,,Clear,230,2013-08-21 19:52:00
3:52 PM,88.0,64.9,46,30.03,10.0,SW,13.8,20.7,N/A,,Clear,230,2013-08-21 20:52:00
4:52 PM,88.0,66.0,48,30.01,10.0,SSW,11.5,20.7,N/A,,Clear,210,2013-08-21 21:52:00
5:52 PM,87.1,66.0,49,30.00,10.0,SW,11.5,17.3,N/A,,Clear,220,2013-08-21 22:52:00
6:52 PM,84.0,64.9,53,29.98,10.0,SSW,6.9,-,N/A,,Clear,210,2013-08-21 23:52:00
7:52 PM,81.0,66.0,60,30.01,10.0,SSW,4.6,-,N/A,,Overcast,210,2013-08-22 00:52:00
8:52 PM,77.0,66.9,71,30.02,10.0,SSW,4.6,-,N/A,,Scattered Clouds,200,2013-08-22 01:52:00
9:52 PM,77.0,68.0,74,30.02,10.0,SSW,5.8,-,N/A,,Mostly Cloudy,200,2013-08-22 02:52:00
10:52 PM,73.9,68.0,82,30.04,9.0,North,5.8,-,0.00,Rain,Light Rain,350,2013-08-22 03:52:00
11:08 PM,73.4,68.0,83,30.05,10.0,WSW,5.8,-,0.00,Thunderstorm,Partly Cloudy,240,2013-08-22 04:08:00
11:52 PM,73.9,69.1,85,30.01,3.0,SW,13.8,19.6,0.11,Rain-Thunderstorm,Rain,230,2013-08-22 04:52:00